Location: Lake Mineral Wells State Park
(32.8157°N, 98.0290°W)
Time: 20:25:51
(UTC-05:00)

N. Korean satellite - Visible Passes

Search period start: 18 March 2019 00:00
Search period end: 28 March 2019 00:00
Orbit: 455 x 511 km, 97.2° (Epoch: 18 March)

Date Brightness Start Highest point End Pass type
(mag) Time Alt. Az. Time Alt. Az. Time Alt. Az.
20 Mar 9.8 06:52:00 10° NE 06:54:29 18° E 06:56:58 10° SE visible
21 Mar 10.6 20:07:27 10° W 20:07:51 10° W 20:08:16 10° W visible
24 Mar 9.9 06:46:26 10° ENE 06:48:37 15° E 06:50:47 10° SE visible
